Total_Precipitation_Accumulation
0.00 0.00 0.00 0.00 0.00 0.01 0.01 0.01 0.01 0.01 0.01 0.01 0.02 0.03 0.04 0.07 0.08 0.11 0.11 0.13 0.17 0.18 0.21 0.24 0.25 0.28 0.31 0.28 0.31 0.35 0.36 0.43 0.42 0.11 0.04 0.05 0.15 0.22 0.21 0.16 0.15 0.17 0.15
0.00 0.00 0.00 0.00 0.00 0.00 0.01 0.01 0.01 0.01 0.01 0.02 0.02 0.04 0.08 0.12 0.14 0.16 0.17 0.16 0.19 0.21 0.22 0.26 0.28 0.27 0.29 0.27 0.30 0.31 0.29 0.27 0.33 0.21 0.06 0.06 0.11 0.19 0.27 0.28 0.22 0.20 0.18
0.00 0.00 0.00 0.00 0.00 0.00 0.00 0.00 0.01 0.01 0.01 0.02 0.02 0.06 0.15 0.22 0.21 0.17 0.20 0.21 0.21 0.22 0.25 0.28 0.29 0.29 0.28 0.25 0.29 0.29 0.24 0.22 0.26 0.30 0.15 0.08 0.12 0.15 0.26 0.36 0.31 0.27 0.24
0.00 0.00 0.00 0.00 0.00 0.00 0.00 0.00 0.00 0.01 0.01 0.02 0.02 0.04 0.15 0.34 0.37 0.29 0.33 0.31 0.25 0.22 0.19 0.18 0.25 0.35 0.34 0.33 0.36 0.31 0.28 0.31 0.36 0.42 0.31 0.19 0.19 0.19 0.30 0.42 0.46 0.42 0.35
0.00 0.00 0.00 0.00 0.00 0.00 0.00 0.00 0.01 0.01 0.01 0.02 0.02 0.03 0.08 0.42 0.79 0.74 0.67 0.50 0.29 0.18 0.12 0.11 0.19 0.33 0.39 0.54 0.65 0.57 0.56 0.65 0.64 0.66 0.58 0.45 0.39 0.40 0.44 0.45 0.60 0.59 0.49
0.00 0.00 0.00 0.00 0.00 0.00 0.01 0.01 0.01 0.01 0.01 0.02 0.02 0.02 0.04 0.30 0.84 0.92 0.68 0.37 0.23 0.17 0.13 0.09 0.12 0.25 0.28 0.37 0.53 0.65 0.76 0.90 0.96 0.95 0.90 0.78 0.57 0.50 0.49 0.59 0.68 0.80 0.77
0.00 0.00 0.00 0.00 0.00 0.00 0.01 0.01 0.01 0.02 0.02 0.02 0.02 0.02 0.02 0.17 0.67 0.78 0.48 0.26 0.17 0.14 0.10 0.09 0.10 0.18 0.25 0.33 0.38 0.43 0.50 0.66 0.89 1.02 1.07 0.78 0.60 0.52 0.65 0.80 0.80 0.88 0.84
0.00 0.00 0.00 0.00 0.00 0.01 0.01 0.01 0.02 0.02 0.02 0.02 0.02 0.02 0.02 0.08 0.52 0.65 0.38 0.21 0.13 0.10 0.07 0.08 0.08 0.13 0.25 0.47 0.49 0.43 0.38 0.45 0.67 0.89 1.10 0.95 0.76 0.76 1.00 1.26 1.33 1.23 0.90
0.00 0.00 0.00 0.00 0.00 0.01 0.01 0.01 0.02 0.03 0.03 0.02 0.02 0.02 0.01 0.03 0.31 0.55 0.37 0.19 0.12 0.08 0.05 0.05 0.08 0.13 0.27 0.53 0.57 0.45 0.32 0.31 0.39 0.66 0.95 1.10 1.08 1.13 1.31 1.64 1.77 1.60 1.21
0.00 0.00 0.00 0.00 0.00 0.01 0.01 0.02 0.02 0.02 0.03 0.02 0.02 0.01 0.01 0.01 0.14 0.39 0.41 0.24 0.13 0.09 0.08 0.06 0.11 0.24 0.38 0.54 0.53 0.50 0.58 0.45 0.38 0.39 0.46 0.58 0.70 0.78 1.02 1.36 1.59 1.61 1.33
0.00 0.00 0.00 0.00 0.01 0.01 0.02 0.03 0.03 0.03 0.03 0.02 0.02 0.01 0.01 0.01 0.05 0.21 0.40 0.33 0.22 0.18 0.17 0.13 0.11 0.26 0.38 0.48 0.56 0.57 0.76 0.71 0.54 0.52 0.47 0.44 0.45 0.56 0.73 1.03 1.39 1.59 1.53
0.00 0.00 0.00 0.00 0.01 0.02 0.03 0.03 0.03 0.03 0.03 0.03 0.02 0.02 0.02 0.01 0.06 0.17 0.30 0.33 0.33 0.25 0.19 0.13 0.13 0.25 0.37 0.47 0.48 0.54 0.61 0.59 0.52 0.46 0.39 0.36 0.40 0.47 0.57 0.75 1.07 1.29 1.32
0.00 0.00 0.00 0.01 0.02 0.03 0.04 0.04 0.04 0.05 0.06 0.05 0.04 0.04 0.02 0.02 0.08 0.19 0.19 0.20 0.29 0.27 0.18 0.20 0.26 0.32 0.33 0.25 0.25 0.36 0.41 0.41 0.51 0.50 0.39 0.34 0.38 0.49 0.54 0.60 0.75 1.03 1.19
0.00 0.01 0.01 0.02 0.03 0.03 0.04 0.04 0.05 0.08 0.15 0.12 0.08 0.07 0.06 0.06 0.20 0.31 0.22 0.16 0.22 0.29 0.29 0.26 0.28 0.26 0.21 0.15 0.13 0.16 0.20 0.30 0.47 0.54 0.43 0.32 0.31 0.38 0.51 0.63 0.74 0.91 1.13
0.01 0.01 0.01 0.02 0.03 0.04 0.05 0.04 0.06 0.07 0.17 0.20 0.16 0.17 0.20 0.26 0.35 0.42 0.38 0.31 0.31 0.34 0.44 0.48 0.35 0.26 0.24 0.19 0.14 0.11 0.13 0.20 0.28 0.32 0.36 0.37 0.34 0.37 0.43 0.56 0.77 0.92 1.08
0.01 0.01 0.02 0.03 0.04 0.05 0.05 0.05 0.05 0.06 0.08 0.09 0.12 0.16 0.16 0.26 0.34 0.33 0.34 0.33 0.35 0.39 0.50 0.52 0.33 0.23 0.21 0.21 0.20 0.17 0.13 0.15 0.18 0.24 0.31 0.36 0.40 0.42 0.44 0.48 0.64 0.86 1.02
0.01 0.01 0.02 0.04 0.04 0.04 0.05 0.06 0.06 0.05 0.04 0.04 0.06 0.10 0.14 0.19 0.23 0.26 0.29 0.29 0.29 0.32 0.38 0.30 0.21 0.19 0.20 0.19 0.20 0.20 0.17 0.14 0.17 0.23 0.25 0.29 0.35 0.40 0.42 0.45 0.52 0.68 0.87
0.01 0.02 0.03 0.04 0.05 0.05 0.06 0.06 0.08 0.10 0.08 0.04 0.03 0.05 0.10 0.15 0.19 0.22 0.27 0.30 0.26 0.20 0.23 0.24 0.22 0.20 0.20 0.21 0.21 0.21 0.19 0.17 0.18 0.19 0.21 0.23 0.29 0.37 0.39 0.40 0.45 0.60 0.76
0.01 0.02 0.03 0.04 0.05 0.05 0.06 0.07 0.09 0.10 0.10 0.08 0.05 0.05 0.08 0.12 0.15 0.17 0.23 0.31 0.28 0.21 0.19 0.19 0.19 0.20 0.21 0.21 0.22 0.21 0.21 0.20 0.18 0.19 0.19 0.20 0.22 0.29 0.33 0.33 0.39 0.49 0.65
0.01 0.03 0.04 0.05 0.05 0.06 0.08 0.10 0.12 0.13 0.13 0.12 0.11 0.11 0.19 0.29 0.30 0.23 0.23 0.26 0.25 0.21 0.18 0.19 0.18 0.19 0.21 0.23 0.23 0.22 0.22 0.19 0.17 0.17 0.16 0.16 0.17 0.22 0.26 0.28 0.34 0.42 0.50
0.01 0.02 0.05 0.06 0.07 0.08 0.11 0.14 0.16 0.19 0.20 0.17 0.13 0.13 0.31 0.49 0.41 0.26 0.22 0.22 0.24 0.24 0.24 0.24 0.22 0.20 0.20 0.22 0.23 0.23 0.22 0.19 0.16 0.16 0.15 0.14 0.15 0.18 0.19 0.23 0.28 0.34 0.42
0.01 0.03 0.05 0.08 0.10 0.11 0.14 0.17 0.20 0.22 0.21 0.20 0.17 0.15 0.21 0.29 0.29 0.27 0.23 0.20 0.20 0.22 0.25 0.29 0.26 0.21 0.23 0.28 0.30 0.30 0.24 0.19 0.15 0.16 0.16 0.14 0.14 0.15 0.16 0.19 0.21 0.26 0.35
0.03 0.06 0.09 0.11 0.12 0.15 0.17 0.17 0.19 0.21 0.23 0.23 0.22 0.21 0.21 0.24 0.25 0.26 0.25 0.21 0.21 0.21 0.21 0.26 0.26 0.20 0.18 0.22 0.26 0.33 0.33 0.24 0.18 0.19 0.21 0.18 0.15 0.14 0.15 0.18 0.19 0.23 0.30
0.07 0.11 0.14 0.15 0.16 0.18 0.21 0.21 0.21 0.23 0.24 0.25 0.23 0.23 0.23 0.23 0.23 0.22 0.22 0.22 0.23 0.21 0.21 0.24 0.24 0.21 0.20 0.22 0.22 0.24 0.25 0.23 0.25 0.25 0.24 0.24 0.21 0.17 0.18 0.20 0.20 0.22 0.28
0.10 0.13 0.16 0.19 0.22 0.24 0.26 0.26 0.25 0.24 0.25 0.26 0.25 0.25 0.23 0.22 0.21 0.19 0.18 0.19 0.20 0.19 0.19 0.21 0.23 0.24 0.23 0.22 0.23 0.24 0.22 0.23 0.29 0.38 0.42 0.38 0.28 0.22 0.23 0.23 0.21 0.21 0.26
0.11 0.14 0.17 0.21 0.26 0.29 0.33 0.35 0.31 0.28 0.29 0.28 0.27 0.26 0.26 0.25 0.22 0.20 0.19 0.20 0.21 0.20 0.18 0.18 0.20 0.24 0.24 0.24 0.23 0.23 0.26 0.27 0.29 0.35 0.47 0.50 0.37 0.25 0.24 0.27 0.24 0.24 0.26